User: anonymous   Login
Location: Clinton NY
(43.0598°N, 75.3602°W)
Time: 20:49:51
(UTC-04:00)
Language:

Iridium 11 - Orbit

View from above orbital plane
View from above orbital plane
View from above satellite
View from above satellite

Ground track
Ground track

The orbit data is extracted from the following two-line orbital elements,

1 25578U 98074B   17084.67903863 -.00000033 +00000-0 -18988-4 0  9993
2 25578 086.3917 290.5026 0001931 087.7994 339.5172 14.34217165965425
Epoch (UTC): 25 March 2017 16:17:48
Eccentricity: 0.0001931
inclination: 86.3917°
perigee height: 776 km
apogee height: 779 km
right ascension of ascending node: 290.5026°
argument of perigee: 87.7994°
revolutions per day: 14.34217165
mean anomaly at epoch: 339.5172°
orbit number at epoch: 96542

The dashed part of the orbit path shows where the satellite is in the earth's shadow,  

DLR